Погода в Шангалах

Россия / Архангельская область     61°07′58″N   43°20′33″E
темп.,
°C
ветер,
м/с
пор.,
м/с
влажн.,
%
обл.,
%
осадки,
мм/ч
давл.,
гПа
погр.,
м
18 апреля, вс
вс1800:00+3с25835 0.0 1029107
03:00+2ссв39895 0.0 1030283
06:00+2св488177 0.0 1031726
09:00+3св465245 0.0 1033864
12:00+5всв463610 0.0 10331330
15:00+6всв45345 0.0 10331547
18:00+5всв35445 0.0 10341322
21:00+1всв28660 0.0 1035218
19 апреля, пн
пн1900:00−1в28720 0.0 1036197
03:00−2в27740 0.0 1037165
06:00−1в26695 0.0 1037199
09:00+4вюв34455 0.0 10371116
12:00+6вюв343675 0.0 10361510
15:00+7вюв2334100 0.0 10351533
18:00+6вюв234682 0.0 1034102
21:00+1юв22630 0.0 103521
20 апреля, вт
вт2000:000юв22680 0.0 103514
03:00−1юв22720 0.0 103617
06:000юв13690 0.0 1035105
09:00+5ююв23450 0.0 1034785
12:00+8юв34350 0.0 10331306
15:00+9юв34330 0.0 10311426
18:00+8юв36430 0.0 1029347
21:00+3вюв26650 0.0 1029112
21 апреля, ср
ср2100:00+1вюв297479 0.0 1028182
03:000вюв3117358 0.0 1026253
06:00+1вюв41465100 0.0 1024534
09:00+6вюв61547100 0.0 1021948
12:00+9вюв71641100 0.0 10171301
15:00+6юв71754100 0.1 10151453
18:00+4юв71582100 0.8 10131161
21:00+3юв61489100 1.0 10121036
22 апреля, чт
чт2200:00+2юв61596100 0.3 1010800
03:00+2ююв51396100 0.4 1010975
06:00+4ююв61483100 0.1 10091527
09:00+4ю71481100 0.3 10101442
12:00+5ююз61178100 0.3 10121374
15:00+5ююз51272100 0.4 10141377
18:00+5юз51179100 0.4 10161229
21:00+3ююз4108546 0.5 1018472